Miscellaneous Local Product
Issued by NWS Hastings, NE

Home | Current Version | Previous Version | Graphics & Text | Print | Product List | Glossary Off
Versions: 1 2 3 4 5 6 7 8 9 10 11 12 13 14 15 16 17 18 19 20 21 22 23 24 25 26 27 28 29 30 31 32 33 34 35 36 37 38 39 40 41 42 43 44 45 46 47 48 49 50

000
AXUS43 KGID 280202
MISGRI

GID CWA HOURLY WEATHER ROUNDUP
NATIONAL WEATHER SERVICE HASTINGS NE
900 PM CDT THU AUG 27 2015

NOTE: "FAIR" INDICATES FEW OR NO CLOUDS BELOW 12,000 FEET WITH NO
SIGNIFICANT WEATHER AND/OR OBSTRUCTIONS TO VISIBILITY.

...SOUTH CENTRAL NEBRASKA...

CITY           SKY/WX    TMP DP  RH WIND       PRES   REMARKS
GRAND ISLAND   CLOUDY    76  65  68 S23G33    29.80F
HASTINGS       CLOUDY    76  66  71 S16       29.83S
KEARNEY        CLOUDY    75  64  69 S17G24    29.81F
ORD            CLOUDY    77  67  71 S8        29.82S
YORK           MOCLDY    77  64  65 S17G26    29.82F
AURORA         CLOUDY    77  64  65 S18G25    29.81F
LEXINGTON      PTCLDY    78  70  76 SE6       29.82S
HOLDREGE       MOCLDY    75  64  67 S13G21    29.82S
HEBRON         CLOUDY    74  63  67 S17G25    29.86F

...NEBRASKA PANHANDLE...

CITY           SKY/WX    TMP DP  RH WIND       PRES   REMARKS
CHADRON        CLEAR     67  57  70 E6        30.01R
ALLIANCE       CLEAR     67  57  70 N6        30.03R
SCOTTSBLUFF    PTCLDY    68  57  68 NE7       30.04R
SIDNEY         PTCLDY    70  55  59 NE7       30.06R

...WESTERN AND NORTH CENTRAL NEBRASKA...

CITY           SKY/WX    TMP DP  RH WIND       PRES   REMARKS
VALENTINE      NOT AVBL
AINSWORTH      CLOUDY    74  68  82 N9        29.91R
ONEILL         RAIN      71  68  91 E10G20    29.90R
BROKEN BOW     MOCLDY    70  67  90 W3        29.85S
IMPERIAL       MOCLDY    76  63  64 N8        29.95R
NORTH PLATTE   PTCLDY    75  65  70 N12       29.89R
MCCOOK         MOCLDY    81  59  47 NW10      29.86R

...EASTERN NEBRASKA...

CITY           SKY/WX    TMP DP  RH WIND       PRES   REMARKS
NORFOLK        LGT RAIN  73  69  87 E9        29.89R
SO SIOUX CITY  LGT RAIN  73  67  81 NE18G25   29.94R
TEKAMAH        CLOUDY    75  68  78 E6        29.89S
COLUMBUS       CLOUDY   N/A N/A N/A E6        29.85R
ALBION         CLOUDY    74  67  78 E14       29.83S
OMAHA EPPLEY   CLOUDY    75  67  76 SE17      29.91S
OFFUTT AFB     CLOUDY    73  67  82 E14G20    29.91R
MILLARD        CLOUDY    76  68  76 SE9       29.91R
LINCOLN        CLOUDY    78  65  63 SE13      29.88R
NEBRASKA CITY  CLOUDY    73  64  72 SE14      29.94R
BEATRICE       CLOUDY    74  64  71 S20       29.90F
FALLS CITY     CLOUDY    72  68  87 SE8       29.96R

...NORTHERN KANSAS...

CITY           SKY/WX    TMP DP  RH WIND       PRES   REMARKS
GOODLAND       MOCLDY    80  58  46 N13       29.97R
HILL CITY      CLOUDY    86  60  41 S20G26    29.83R
NORTON         CLEAR     79  57  47 W8        29.82R
PHILLIPSBURG   CLEAR     84  63  48 S16       29.82R
SMITH CENTER   CLEAR     73  66  78 SE15      29.84S
HAYS           MOCLDY    79  64  61 S24G32    29.85R
RUSSELL        TSTM      75  68  78 S21       29.85R
CONCORDIA      TSTM      72  68  87 SE10G21   29.91S
SALINA         CLOUDY    83  65  54 SE17      29.87S
TOPEKA         CLOUDY    73  67  81 E12       29.96R



USA.gov is the U.S. government's official web portal to all federal, state and local government web resources and services.